Theta_e
314 314 314 314 314 313 313 312 312 311 310 322 322 324 317 310 307 316 318 319 317 311 306 307 307 304 304 307 306 307 305 305 305 305 306 304 305 304 304 303 302 303 304 302 301 302 299 300 298 300 301 300 301 303 305 307 306 306 303 304 305 308 303 299 299 303 304 306 307 307 308 307 306 307 307 306 304 306 305 304 306 303 304 302 303 304 306
314 314 314 314 314 313 313 312 312 312 310 317 322 321 314 311 310 312 317 320 318 309 303 301 303 304 305 305 303 306 305 305 304 304 305 304 304 303 303 304 306 303 305 304 301 303 296 301 300 299 302 299 303 304 305 307 305 305 303 304 305 300 304 301 297 298 299 300 303 304 306 306 304 304 306 307 307 307 307 306 308 303 304 304 305 297 304
314 314 314 314 313 313 312 312 312 312 312 314 320 318 313 312 313 312 313 318 315 306 307 305 303 303 303 303 302 302 303 304 305 305 304 306 305 304 302 304 304 303 304 302 304 303 303 299 303 302 301 300 304 303 304 306 304 304 305 307 307 302 302 301 295 293 290 290 291 294 297 300 304 305 303 305 305 305 305 301 305 298 306 306 303 303 312
314 314 314 314 314 313 312 312 312 312 311 309 322 322 315 309 306 309 310 313 311 310 311 309 305 302 303 301 301 302 300 303 305 305 304 306 305 306 304 305 306 303 303 301 300 301 304 302 300 302 300 301 301 303 304 303 302 306 310 308 307 302 302 304 302 298 296 299 301 304 306 304 300 301 303 303 304 306 306 306 303 300 305 304 308 307 309
314 314 314 314 314 313 312 312 312 312 311 309 318 322 315 313 305 306 305 309 308 306 308 306 306 304 306 302 302 301 301 302 303 305 302 304 305 304 305 303 302 302 303 301 301 302 301 304 303 301 301 302 302 303 304 303 304 307 308 305 306 302 299 300 301 301 300 300 300 302 304 302 302 301 300 302 302 305 305 302 300 310 304 298 310 313 309
314 314 315 314 313 313 312 312 312 312 311 308 321 316 313 306 306 310 311 304 301 305 302 307 303 304 305 302 304 301 301 301 300 303 304 305 305 303 303 305 305 304 303 303 301 302 302 303 301 302 302 301 302 302 303 302 303 305 303 305 304 302 297 300 299 299 300 301 300 301 301 302 301 301 300 301 302 304 303 304 305 307 304 302 311 314 311
314 314 315 315 313 313 313 313 312 311 310 313 324 315 310 309 308 307 310 306 305 305 305 306 305 304 305 303 303 300 301 299 302 303 302 303 303 305 300 301 302 303 304 305 302 303 298 299 304 303 302 303 302 301 301 302 304 304 303 303 305 302 299 299 299 298 299 299 300 300 300 299 299 300 300 300 301 302 303 303 305 307 308 311 312 313 313
314 314 314 315 314 314 314 312 312 312 310 322 322 314 312 311 312 306 310 309 307 306 307 306 305 302 304 303 301 302 301 300 302 303 303 300 301 304 301 301 302 303 304 306 302 303 304 304 301 303 302 300 304 303 304 302 304 304 301 302 304 300 299 299 298 297 297 298 298 299 298 298 298 299 300 300 300 301 302 303 305 308 309 311 311 311 311
314 314 314 314 314 313 314 313 312 311 311 322 314 312 315 313 318 318 312 305 304 308 307 307 305 303 305 303 301 303 302 302 303 303 306 303 302 303 301 303 303 305 304 304 302 304 304 305 304 304 304 301 304 303 302 303 302 302 302 302 301 299 300 300 298 294 295 297 297 297 298 298 297 298 298 299 299 299 300 301 305 305 305 309 309 307 309
314 314 314 314 314 314 314 313 312 311 313 326 318 312 321 320 315 317 313 303 305 305 305 307 306 302 304 305 304 303 302 303 304 300 304 305 306 305 304 304 303 303 303 301 302 304 305 304 305 305 305 305 305 305 304 304 305 303 302 302 301 301 301 296 296 292 294 297 296 296 297 296 293 295 298 299 300 302 302 305 305 307 309 307 306 308 313
314 314 314 314 314 315 315 314 314 311 320 326 323 314 316 315 315 315 314 307 305 306 306 304 305 303 304 304 303 305 304 305 306 304 299 303 303 306 306 305 304 302 301 302 306 308 307 306 306 307 306 305 304 304 304 303 304 304 304 302 301 302 300 298 300 292 295 295 295 296 293 288 291 301 303 302 300 301 301 301 303 306 308 307 310 312 315
314 314 313 314 314 315 315 315 313 311 312 324 329 320 320 322 323 319 312 305 300 307 306 303 304 304 304 304 305 304 304 304 304 307 302 303 304 305 305 305 306 301 304 309 308 307 307 307 307 308 305 305 304 304 305 304 304 307 304 304 301 300 300 300 302 294 295 297 296 291 286 290 301 304 304 304 304 303 302 303 304 306 309 312 312 313 313
314 314 313 313 314 314 315 315 314 312 311 320 327 319 323 330 326 318 313 309 304 306 303 303 307 305 305 306 306 306 305 306 306 306 305 304 304 306 307 306 304 303 309 307 308 308 304 302 303 304 302 304 304 305 303 304 303 304 305 305 305 301 298 300 297 297 299 296 293 284 287 299 303 302 303 305 303 302 303 302 305 306 307 311 310 312 313
314 314 313 313 314 314 315 315 314 313 311 313 324 324 324 326 320 318 313 310 302 306 305 304 305 305 306 306 305 305 306 305 307 307 304 306 305 305 307 308 307 309 310 310 308 305 301 300 298 297 298 300 302 300 304 302 303 303 304 305 303 304 303 301 296 300 293 295 293 292 300 299 299 299 301 300 301 300 300 296 301 306 308 310 311 312 312
313 313 313 313 313 314 314 314 314 314 313 310 324 325 325 326 327 321 322 315 305 306 310 304 305 306 306 305 306 305 306 305 305 306 307 309 307 307 308 308 311 311 309 308 303 304 303 302 297 296 297 295 289 293 301 298 304 304 304 304 305 306 302 303 298 297 298 294 292 293 292 289 296 302 305 306 307 307 307 306 302 308 309 311 311 310 310
313 313 313 313 313 314 314 314 314 313 313 310 325 327 326 329 331 328 321 314 311 304 306 310 309 307 307 305 307 307 306 304 308 305 304 305 308 307 309 311 311 311 309 306 307 304 302 297 295 292 290 292 298 292 291 300 299 302 303 304 304 305 306 304 299 296 297 294 291 291 288 293 302 303 306 307 308 306 308 301 298 307 309 309 311 310 310
313 313 313 313 313 313 314 314 314 313 313 309 321 327 324 331 329 325 321 316 312 306 309 310 310 310 308 305 305 305 308 306 306 303 304 304 306 308 309 311 312 309 307 305 305 301 300 297 299 293 296 300 289 288 294 291 294 298 302 303 302 302 299 298 294 294 296 295 290 289 296 294 304 306 305 305 308 303 302 289 291 307 308 308 308 309 309
313 313 313 313 312 313 313 313 314 314 313 311 318 326 324 330 332 332 323 316 310 307 309 310 309 307 308 310 307 309 308 307 307 307 307 308 308 307 309 307 306 308 311 304 305 300 299 297 292 291 291 301 300 292 286 289 287 294 296 298 297 296 297 298 294 294 294 294 294 296 298 306 308 306 306 306 305 302 293 288 301 310 309 309 310 310 310
313 313 313 312 312 313 313 313 313 313 314 310 318 329 327 329 331 331 325 317 312 308 309 312 312 311 315 314 311 310 311 310 311 304 305 303 306 310 309 309 310 304 307 302 304 301 298 298 302 297 292 297 299 289 293 289 290 297 300 296 296 297 298 298 298 294 293 294 292 293 297 305 308 308 306 307 302 292 292 305 311 311 310 309 310 309 310
313 313 313 312 312 312 312 312 313 313 313 311 314 324 325 328 331 329 322 314 313 312 314 312 311 309 312 309 310 307 309 307 308 306 305 302 310 308 305 303 306 308 306 305 300 303 299 295 298 300 293 296 296 301 292 294 300 297 299 300 297 296 294 292 293 297 296 296 292 290 286 303 310 307 305 305 297 301 309 311 311 311 309 308 307 308 308
312 313 312 312 312 312 312 312 312 313 313 313 310 323 323 330 329 329 328 322 315 311 312 317 315 312 313 312 312 313 311 309 310 306 310 309 312 308 297 300 304 303 301 303 297 298 301 297 300 297 300 298 300 298 291 292 296 303 302 300 299 303 294 294 296 299 292 292 289 290 302 306 311 307 301 305 304 311 312 310 308 309 309 308 308 308 308
312 312 312 312 312 312 312 312 312 312 313 313 310 321 322 328 328 328 327 325 319 313 313 317 317 315 316 316 317 318 316 315 316 316 312 310 313 307 308 309 308 306 308 308 304 302 304 302 303 300 297 298 304 293 299 292 290 300 304 303 292 304 299 302 295 303 297 294 298 305 307 309 310 309 309 310 312 313 312 310 310 309 308 309 308 309 310
312 312 312 312 311 311 311 312 312 312 312 313 314 325 322 324 327 329 328 321 323 322 321 319 320 319 318 318 320 320 320 319 318 317 316 310 309 309 307 307 306 311 311 311 304 304 305 303 300 303 300 301 296 296 300 297 293 300 295 304 300 307 307 310 304 300 306 307 306 310 308 308 308 308 312 312 311 312 309 309 307 308 310 311 309 309 309
312 312 311 311 311 311 311 311 311 312 311 312 313 322 324 324 324 325 326 324 317 312 316 319 314 315 314 314 317 319 319 318 318 320 321 318 307 308 311 312 312 311 311 312 314 307 306 306 304 305 298 302 303 298 293 292 297 301 300 300 303 305 307 304 298 303 298 294 306 305 306 307 307 308 311 313 312 311 310 309 309 311 311 310 310 310 309
312 311 311 311 311 311 311 311 311 311 311 311 314 322 322 325 328 324 321 312 312 309 305 311 312 316 316 319 320 319 319 321 322 320 318 318 315 309 308 315 316 311 310 313 316 310 308 303 304 303 298 304 305 295 303 298 297 304 297 299 300 300 309 302 301 301 298 299 306 306 308 309 309 308 309 309 310 311 312 311 312 312 313 312 312 311 309
311 311 311 311 311 311 310 311 310 311 311 310 311 321 322 323 325 326 324 324 321 316 308 306 312 317 319 314 315 318 322 321 319 319 318 318 317 316 315 316 317 319 316 314 313 309 307 306 306 305 301 301 308 300 300 303 301 306 301 300 304 306 307 298 304 300 302 304 306 307 309 308 308 309 310 311 311 311 311 311 311 311 311 311 311 311 310
311 311 311 311 310 310 311 310 311 311 311 311 315 322 321 323 325 322 322 322 313 309 309 305 313 315 317 314 318 320 319 319 319 318 318 317 317 318 316 315 314 315 313 312 313 310 309 305 304 302 306 305 307 304 305 305 303 301 301 305 309 304 300 304 303 299 298 300 303 307 301 301 306 307 308 309 311 311 311 311 311 311 311 311 311 311 311
311 310 310 310 310 310 310 310 311 311 310 311 315 321 323 321 324 324 324 324 318 310 310 309 309 314 318 315 317 318 319 318 318 317 317 317 317 316 315 315 315 312 312 310 307 307 306 303 303 309 307 309 305 303 307 307 306 303 302 304 309 305 307 305 300 299 298 306 308 310 307 307 308 310 311 312 312 311 310 309 310 310 311 312 312 311 311
311 310 309 310 309 309 309 310 311 311 311 309 319 321 321 323 324 322 322 324 323 318 315 315 316 314 309 313 318 317 318 318 318 317 316 316 316 316 315 316 315 314 313 311 310 309 307 307 310 306 307 313 306 303 304 299 300 299 302 308 309 310 309 307 306 306 306 309 309 310 308 307 310 312 313 312 312 311 310 311 311 311 311 311 310 311 310
310 309 309 309 309 309 309 310 310 311 310 316 320 319 316 318 322 323 322 323 323 321 313 310 306 312 319 316 314 316 316 317 317 317 317 317 316 317 317 317 316 316 315 313 312 307 309 308 309 311 312 315 305 304 300 301 300 302 309 311 311 311 310 309 309 307 306 310 310 311 311 311 312 312 312 313 313 312 310 311 311 310 311 311 310 310 311
309 309 308 308 309 309 309 309 310 311 310 317 317 314 312 308 317 322 316 322 325 319 315 313 308 314 312 317 317 315 317 317 318 317 317 316 317 317 318 319 318 317 312 313 311 310 310 306 309 308 311 313 308 304 301 300 299 302 306 308 308 308 309 309 310 311 311 310 310 311 312 311 312 312 311 313 313 313 311 311 312 312 312 311 310 311 311
308 309 308 308 309 309 310 310 310 310 316 318 316 317 314 315 320 319 318 319 324 319 313 307 308 309 310 312 315 318 316 317 317 317 316 317 315 316 319 317 316 318 315 311 312 310 308 311 309 308 307 308 307 303 302 299 297 299 307 309 311 309 310 312 311 311 311 312 310 308 307 308 310 308 307 312 313 313 312 311 312 312 312 312 312 312 312
308 308 308 309 309 309 310 310 310 311 318 315 310 309 310 309 309 313 317 323 322 318 316 310 305 309 306 310 316 316 317 316 314 314 312 316 313 314 313 318 316 316 317 311 308 306 311 309 310 305 309 310 305 304 301 299 301 307 308 309 308 309 309 310 310 310 311 313 311 305 304 306 309 311 311 311 311 310 310 310 311 311 311 311 310 310 310
309 309 308 309 310 309 310 310 311 309 310 313 318 319 318 310 314 309 320 324 319 319 316 310 307 306 306 315 308 313 314 312 313 312 306 314 318 311 312 314 316 310 314 308 311 310 310 309 304 303 305 305 307 302 297 301 306 307 308 307 307 308 308 308 308 309 311 312 313 312 311 311 312 315 313 312 310 311 311 311 310 308 308 309 309 309 310
309 309 309 309 310 311 311 310 316 319 319 318 320 323 318 310 310 313 319 321 311 311 310 311 310 305 305 307 305 310 317 311 307 312 307 312 317 312 314 309 311 305 308 315 310 308 306 306 308 302 299 306 303 294 299 302 303 305 304 306 308 308 309 308 309 311 312 312 312 312 312 313 310 310 310 310 311 312 310 310 310 310 307 306 307 309 309
309 309 310 310 310 311 316 313 316 319 318 316 318 316 314 314 315 322 323 323 318 312 309 308 309 306 307 300 299 309 316 309 313 312 315 314 311 316 313 310 304 307 315 309 304 307 305 313 305 299 304 299 296 300 303 306 305 307 308 307 308 309 308 309 309 311 312 312 313 313 311 311 309 308 309 310 311 311 311 310 310 310 309 308 307 308 308
310 311 311 311 312 316 317 317 322 320 318 319 318 317 314 317 322 322 320 318 321 322 312 309 306 307 309 305 309 311 309 301 311 308 310 309 306 310 309 308 303 307 307 305 305 301 306 311 305 300 300 295 299 306 308 307 308 307 306 307 309 310 311 311 312 312 310 311 311 311 311 309 307 307 307 309 310 310 310 309 309 308 307 308 308 308 307
311 312 314 315 316 315 313 316 318 318 316 314 315 316 316 316 312 313 313 310 315 315 314 311 306 310 315 309 303 312 309 305 310 306 306 311 306 305 311 306 304 304 298 302 303 310 308 304 302 299 300 305 306 307 308 309 309 309 309 309 309 309 310 310 311 309 307 306 305 307 310 309 307 308 307 307 309 309 309 309 309 308 309 309 308 308 308
310 315 316 317 316 311 314 317 320 317 319 320 320 313 311 314 311 307 309 310 312 308 312 309 307 312 310 308 307 314 311 306 304 306 302 310 304 299 306 298 306 304 298 299 303 310 300 302 301 299 297 304 304 307 309 309 309 308 308 308 308 308 308 309 310 309 308 308 309 308 307 308 308 308 308 307 311 311 310 309 308 308 308 308 308 308 307
315 315 314 313 313 316 321 319 316 318 320 314 317 312 307 313 306 300 312 303 304 310 311 307 311 311 312 308 307 308 315 309 303 304 305 305 313 301 306 304 305 300 292 295 299 307 299 293 298 297 297 303 302 305 307 308 308 308 308 307 307 308 308 309 310 311 310 311 313 312 312 311 309 309 307 307 309 309 309 309 309 309 308 307 308 307 306
316 317 316 313 317 319 319 321 320 318 314 310 310 311 308 300 309 310 307 304 302 306 312 310 313 310 312 311 309 306 315 316 314 315 310 303 313 309 302 299 309 297 295 293 303 302 299 296 296 294 295 300 303 305 306 306 305 306 307 306 307 308 308 308 308 310 309 309 311 312 312 310 310 309 309 311 310 308 307 307 307 307 308 307 307 307 307
318 318 321 322 320 320 319 317 315 312 312 313 304 297 302 305 310 307 308 300 302 306 309 310 306 306 308 310 310 311 310 316 314 311 306 300 308 303 300 301 304 294 289 300 306 302 300 291 291 291 299 302 302 302 302 303 303 303 303 305 306 306 306 306 307 310 310 309 309 311 310 309 308 308 308 308 308 308 307 307 307 306 306 307 307 306 306
306 312 320 317 316 315 317 306 312 311 297 296 295 293 302 296 301 302 305 308 314 309 311 317 313 314 314 316 312 314 312 317 310 308 305 301 308 307 302 299 298 290 297 305 301 297 293 290 289 294 297 299 302 302 303 303 303 303 303 305 305 305 304 305 306 308 310 309 310 310 308 308 306 306 307 306 307 307 307 308 308 307 307 306 306 306 306
320 319 316 316 310 312 312 293 311 305 297 299 296 291 299 299 303 304 301 307 309 308 312 309 309 306 302 310 307 309 314 315 312 309 306 310 305 300 299 292 295 302 305 298 297 291 291 292 291 291 298 300 301 301 303 303 303 304 305 305 306 305 304 303 304 305 306 310 310 309 309 307 306 306 307 307 307 306 306 306 307 307 307 306 305 306 306
313 312 309 307 301 305 299 289 310 300 293 298 300 301 302 299 302 303 305 312 309 307 313 311 310 310 307 312 311 310 309 303 313 302 299 304 300 301 297 295 301 301 297 292 294 295 295 291 296 299 299 299 300 301 302 303 303 302 302 303 303 304 304 303 303 303 304 306 308 309 309 308 307 307 307 307 308 307 306 306 307 306 306 305 305 304 305
311 303 301 296 291 297 297 293 297 294 304 306 305 307 306 306 306 305 314 312 310 311 308 311 310 309 306 312 305 305 310 309 303 304 306 305 297 294 301 305 303 295 295 294 288 287 290 295 296 300 300 300 301 302 302 301 302 302 302 300 301 302 303 303 303 304 304 306 307 309 310 309 308 308 306 307 307 307 307 307 307 306 305 304 303 304 304
310 313 305 301 295 298 307 295 299 304 308 308 310 310 310 310 311 312 314 313 312 313 311 313 311 310 307 306 306 310 309 309 302 304 304 298 297 298 304 298 292 293 288 285 286 290 293 296 298 300 299 300 301 301 301 301 302 301 301 303 303 301 302 302 303 303 304 305 306 306 307 308 307 308 307 306 306 307 306 307 306 306 305 304 304 304 303
299 308 304 295 292 298 297 304 310 310 311 311 311 313 314 315 313 311 314 315 319 313 312 311 307 309 307 315 311 303 302 305 300 301 304 298 299 295 290 292 291 293 293 288 289 293 293 297 297 298 300 301 301 300 300 300 301 301 301 301 301 302 303 303 303 304 305 305 305 304 305 306 307 307 306 306 305 306 306 306 306 305 304 304 303 303 302
313 303 298 297 304 305 306 310 309 307 309 311 312 312 311 312 311 312 314 315 313 313 314 311 308 306 303 306 302 300 297 302 294 293 299 297 292 287 288 285 287 286 292 293 293 295 296 297 298 301 301 300 300 300 300 300 300 301 301 302 301 301 300 303 304 305 306 306 307 306 305 305 309 306 306 305 304 304 306 306 306 305 304 303 302 302 302
302 302 308 303 303 305 309 311 308 305 307 308 310 311 312 309 311 312 315 313 315 315 314 312 312 303 302 302 294 297 295 301 298 295 294 292 293 293 292 286 288 289 291 295 295 296 297 298 299 298 299 299 300 300 300 300 302 303 301 301 303 303 302 300 303 305 305 306 307 307 306 304 303 305 305 304 304 305 305 305 304 304 304 304 303 303 301
313 305 305 311 306 307 309 305 306 306 307 309 311 310 312 310 309 313 315 313 312 312 309 302 303 300 296 294 292 290 292 300 295 294 293 293 295 293 290 288 291 293 295 297 297 298 299 299 298 298 298 299 300 300 302 304 301 302 302 301 299 301 303 302 301 301 305 306 308 305 304 305 307 306 306 306 305 304 303 303 304 304 304 304 303 303 303
301 299 304 310 312 310 311 312 312 311 311 313 311 315 311 311 312 315 316 314 312 305 301 304 301 297 293 291 297 298 299 297 294 295 292 295 297 292 292 292 294 296 296 296 297 298 299 299 299 300 299 299 300 302 302 303 303 302 303 302 302 303 303 303 303 303 304 304 306 304 306 309 307 306 306 304 303 303 301 301 303 304 304 304 303 304 304
Wind_Speed
20 21 21 21 21 22 22 22 22 22 24 10 7 8 8 2 6 6 7 4 8 11 1 1 1 3 4 3 4 1 1 5 3 3 4 2 3 3 4 4 0 4 2 6 4 1 4 3 3 5 9 8 8 7 5 7 5 7 2 7 3 5 6 6 4 6 7 6 5 4 6 7 7 7 4 5 9 10 12 11 6 9 13 11 5 8 9
19 21 20 20 20 21 22 22 21 20 15 6 9 8 5 2 4 4 6 6 5 8 1 3 3 3 4 2 5 4 7 8 6 5 5 6 4 6 3 5 6 5 3 2 5 3 5 3 4 5 4 6 6 7 6 10 5 8 6 5 8 5 6 7 5 6 6 3 6 8 7 5 8 11 5 7 9 9 8 8 5 7 12 16 7 8 10
16 18 19 19 20 21 21 21 21 19 15 7 5 6 6 3 3 1 3 2 5 5 4 1 3 4 4 4 5 6 4 5 8 7 7 5 5 1 5 6 3 4 3 4 2 2 4 6 4 5 6 8 3 6 8 9 7 8 7 7 7 6 2 5 7 9 9 10 11 12 11 11 8 1 1 6 8 6 7 9 5 5 6 7 7 6 10
16 19 20 19 20 21 22 21 20 19 16 10 5 6 7 3 3 3 4 3 1 3 4 5 3 4 4 3 3 1 4 5 3 6 6 7 5 7 3 3 1 4 5 3 1 3 1 2 5 5 6 6 4 5 6 7 8 7 8 10 6 3 2 3 4 4 4 6 7 5 8 12 10 8 3 2 5 4 9 8 8 10 9 5 8 14 12
17 19 19 18 20 21 22 21 20 19 15 7 4 7 6 3 3 5 4 2 3 3 3 3 5 2 3 1 2 3 2 4 6 6 1 3 5 5 7 0 2 2 2 4 5 3 6 6 6 5 7 5 6 4 4 6 7 8 7 3 5 2 4 3 0 3 4 6 5 5 7 5 5 6 7 2 1 3 8 10 10 4 6 6 7 14 16
17 19 20 19 20 22 23 22 22 21 15 9 4 5 3 2 4 2 5 5 3 3 5 5 4 4 2 5 3 2 2 1 4 4 5 1 3 3 2 3 6 3 4 3 3 4 6 3 6 4 5 6 6 7 2 4 2 7 1 4 5 4 5 4 6 3 1 2 6 6 4 5 2 1 1 2 1 4 9 3 3 6 8 4 12 11 13
16 18 20 20 19 21 23 24 24 24 24 9 5 6 3 4 3 5 3 4 4 5 6 6 6 6 5 4 1 3 2 4 7 7 5 3 3 5 4 3 3 2 0 3 5 3 3 6 3 2 3 2 4 4 7 4 2 1 2 3 3 4 3 4 3 2 2 2 1 1 2 1 4 5 3 2 3 3 1 2 3 2 4 12 14 11 12
16 17 19 20 19 20 22 24 25 25 27 15 4 6 7 4 4 5 4 4 3 1 2 1 2 6 2 1 5 3 3 6 4 4 6 3 4 1 5 4 4 3 4 3 4 4 7 6 5 3 1 4 3 3 5 4 4 3 2 3 2 5 3 0 3 6 4 2 4 6 3 3 6 5 5 4 3 2 4 1 2 5 10 11 12 15 12
15 17 18 19 18 19 21 22 24 27 23 4 6 5 7 5 4 4 4 1 4 2 1 2 2 4 3 2 3 4 5 8 7 8 9 8 6 6 8 7 7 7 9 9 8 6 6 6 6 3 5 4 4 6 4 5 2 1 1 1 1 6 1 3 4 6 5 4 5 4 6 5 8 6 6 7 6 8 4 6 6 5 7 9 12 13 10
14 15 17 19 18 18 19 20 23 25 26 6 6 6 3 1 2 3 5 1 1 3 3 2 6 3 5 5 3 3 6 4 2 6 5 6 6 5 4 5 5 6 7 8 7 6 6 6 6 5 2 2 2 2 3 2 5 2 2 2 4 4 2 4 6 7 6 8 4 3 4 7 10 12 9 7 7 4 3 3 4 4 8 9 10 8 9
13 14 16 17 18 18 19 19 20 23 15 8 8 7 7 7 5 4 4 3 3 2 3 3 5 7 5 3 6 3 5 2 4 6 5 2 5 4 3 1 3 6 5 5 5 5 4 3 2 2 2 2 3 2 3 2 2 5 3 2 1 2 5 5 4 7 4 7 5 3 7 10 5 7 7 7 8 5 5 6 5 2 4 1 1 8 11
12 13 15 16 17 17 17 18 18 19 15 8 8 4 6 6 5 5 5 3 3 2 3 7 5 4 4 4 3 4 4 0 4 2 7 4 5 3 4 4 4 4 4 1 1 3 3 3 3 2 3 3 4 3 4 3 3 3 1 6 1 2 3 4 1 7 5 6 5 6 9 6 8 4 7 4 4 5 3 3 4 5 2 7 11 12 11
12 12 13 15 16 16 16 16 17 17 17 10 8 6 6 5 5 6 5 6 4 2 4 5 3 5 5 5 6 5 4 5 6 5 6 4 3 5 7 5 4 6 2 2 2 4 3 3 2 1 3 2 3 2 1 3 0 2 4 2 6 1 6 1 4 7 3 3 6 6 4 8 6 6 4 6 2 4 5 4 3 2 2 3 10 9 8
11 12 13 13 15 15 16 16 16 17 18 14 7 6 6 7 6 6 4 5 5 3 6 5 4 6 5 5 5 5 6 5 4 2 5 2 4 4 5 6 7 3 2 1 1 2 4 4 5 5 6 5 4 5 5 1 0 1 2 1 2 6 5 4 5 5 7 6 7 5 8 7 7 6 6 5 5 7 7 6 9 7 3 3 5 12 10
10 11 12 12 13 14 15 14 15 16 17 18 7 5 6 7 6 5 5 6 2 4 3 2 6 4 4 5 4 5 4 4 5 4 4 2 3 3 5 4 1 2 2 4 4 1 5 1 4 3 3 5 3 3 1 5 5 3 1 1 2 2 6 5 6 3 6 7 7 8 8 9 10 7 8 4 4 1 1 5 7 6 5 1 1 8 9
8 10 11 12 12 13 14 14 15 15 16 19 7 4 5 7 6 5 6 5 5 2 5 6 5 5 4 3 4 5 1 4 2 4 5 2 2 4 2 2 1 1 2 2 5 5 3 3 3 1 1 1 4 2 2 2 3 7 3 1 2 3 2 5 6 5 5 7 7 6 5 2 10 10 9 7 5 1 3 6 7 8 7 6 4 7 9
8 9 10 11 11 12 13 13 14 14 14 15 8 5 5 8 6 6 6 4 5 4 3 3 2 1 2 4 3 5 4 2 3 4 4 6 4 3 5 1 2 3 3 6 3 5 3 3 4 1 2 4 0 1 2 2 4 4 5 4 4 5 6 6 8 7 7 6 6 6 5 3 6 9 8 8 4 4 6 7 6 10 9 8 8 4 8
7 8 9 10 10 11 12 12 14 13 13 15 8 5 4 6 7 7 5 4 5 4 4 3 4 4 1 6 2 5 0 0 2 1 2 5 5 5 4 3 6 4 2 6 4 5 4 5 3 2 0 6 4 2 2 3 1 5 4 5 5 6 6 7 8 7 7 7 7 7 5 7 10 9 8 7 4 4 7 7 7 6 7 6 6 7 7
7 8 9 10 9 10 10 11 12 13 13 14 10 7 2 6 7 7 5 3 4 2 6 2 3 5 3 3 5 2 4 6 6 4 3 5 5 3 2 4 6 3 7 6 5 5 5 4 2 2 2 4 4 2 1 2 4 6 2 5 6 5 5 6 7 8 9 6 8 8 1 7 8 7 7 7 6 7 5 9 8 8 9 6 5 7 6
6 7 8 9 9 9 9 10 11 11 13 12 9 5 3 3 5 7 7 6 4 5 4 4 1 4 3 5 3 4 3 4 3 6 3 1 5 6 5 5 6 5 5 3 7 3 4 5 1 3 3 2 3 4 2 7 6 6 5 5 6 4 6 6 7 6 7 6 9 5 7 7 7 10 7 4 8 4 8 7 7 7 8 6 5 2 5
5 6 7 8 8 8 8 9 10 10 12 11 10 5 1 3 3 5 5 5 6 5 4 2 2 4 2 4 5 5 5 6 2 4 2 3 2 5 4 3 4 4 2 4 5 2 3 6 2 3 2 5 4 2 2 1 8 9 8 4 7 1 7 5 7 6 6 7 7 4 3 7 7 7 3 7 1 6 7 6 7 4 4 5 4 4 3
4 5 6 7 7 7 7 8 8 9 11 11 12 6 4 3 1 2 5 5 5 5 5 4 3 5 3 4 4 3 5 5 3 5 6 1 5 6 4 2 3 3 3 3 6 4 5 5 1 4 4 4 5 3 3 4 5 6 9 4 5 6 9 3 4 3 6 4 3 5 3 5 6 4 4 2 10 5 4 2 4 4 2 1 1 3 5
3 4 6 6 6 6 6 7 7 8 9 12 11 4 4 3 1 3 5 6 5 7 5 5 4 4 4 4 4 3 4 4 4 5 4 6 2 4 5 4 4 4 2 3 6 6 5 4 5 3 6 6 4 5 7 7 4 6 5 10 6 3 4 4 5 7 7 8 4 1 2 2 5 4 3 6 5 5 2 2 3 3 1 4 2 3 2
3 4 5 6 6 6 6 6 7 7 8 10 10 5 4 4 4 6 5 6 5 6 5 4 5 5 4 5 7 6 5 6 6 5 3 4 6 3 4 4 1 1 3 1 4 7 5 5 5 4 6 5 4 8 5 6 8 6 7 7 9 9 6 6 6 4 3 4 7 11 9 6 5 6 6 4 5 3 2 3 4 1 4 3 2 2 1
3 4 5 5 5 5 5 6 6 6 7 9 11 6 5 4 1 4 6 5 2 4 5 4 3 7 4 4 2 4 5 3 4 6 7 7 8 7 3 5 6 5 4 3 1 5 4 7 6 5 8 4 5 6 6 8 5 4 9 7 6 9 11 9 9 9 8 5 3 1 2 3 5 7 8 9 7 6 5 3 3 3 4 4 3 3 5
3 4 4 4 4 5 5 5 5 5 6 9 11 5 3 3 4 5 6 6 5 5 6 4 5 4 4 5 6 2 4 3 5 7 8 9 9 9 8 3 5 2 4 3 4 5 5 7 5 6 7 4 2 7 8 5 7 1 6 7 3 6 7 6 4 8 8 11 10 6 6 7 7 8 9 7 8 9 9 8 6 5 6 6 5 5 3
2 3 3 4 4 4 5 5 5 5 4 8 7 2 3 3 3 4 5 5 6 4 6 4 3 5 4 3 3 1 5 6 7 7 7 8 9 8 7 7 6 5 5 6 5 6 5 7 7 8 6 5 1 6 7 7 7 8 8 8 6 6 9 7 6 8 8 8 6 8 10 9 9 12 11 10 9 9 9 9 9 8 7 6 6 6 5
3 1 3 3 4 3 5 5 5 4 3 7 7 3 2 3 1 3 3 4 5 5 6 5 5 2 1 6 3 3 3 4 4 6 7 7 8 8 8 8 6 7 6 6 7 7 7 8 9 6 7 6 7 7 5 9 6 8 9 9 7 8 7 8 9 8 7 3 8 6 5 5 5 4 3 6 8 10 11 11 10 10 9 8 7 7 6
2 1 1 3 3 4 4 5 5 4 5 9 5 4 4 2 2 1 2 3 4 6 6 7 7 8 5 4 4 5 6 3 4 5 5 6 7 7 7 7 7 6 7 7 7 7 7 8 6 8 4 5 1 2 1 8 8 9 6 6 5 1 7 10 8 10 11 11 11 10 8 7 5 7 6 5 6 8 9 10 10 11 10 10 9 8 8
1 2 2 2 3 3 4 3 4 5 7 6 4 5 4 5 1 1 2 3 4 4 6 6 6 1 3 6 8 4 3 5 5 5 5 5 6 6 6 6 7 6 6 6 6 8 7 8 8 2 5 3 3 3 6 7 8 8 7 2 1 3 3 6 8 8 9 8 10 9 9 9 7 8 9 8 8 9 10 10 10 10 10 9 9 9 8
0 2 2 2 4 3 3 3 4 6 9 6 4 5 5 4 4 1 1 5 2 4 6 4 7 5 6 3 3 2 2 2 4 5 6 5 4 5 4 4 5 5 6 6 7 8 4 7 9 4 5 5 3 5 6 8 11 10 10 7 3 5 7 10 12 11 8 9 9 10 9 9 9 9 10 10 10 10 9 9 9 9 8 9 9 8 7
1 1 1 2 3 3 4 5 4 7 6 5 4 4 4 4 4 5 1 7 2 5 5 7 6 6 3 3 3 3 4 3 1 1 2 1 4 1 3 4 5 4 5 6 3 3 7 7 8 6 5 6 5 5 6 8 11 12 8 7 3 5 7 8 9 9 10 9 9 10 12 12 11 13 10 10 11 12 13 10 9 10 9 8 8 8 8
2 1 2 2 3 4 4 5 6 7 4 9 6 3 5 5 4 6 5 5 4 4 4 5 6 3 2 3 5 4 2 1 1 4 4 6 3 4 5 3 5 5 3 5 6 5 4 7 7 8 3 9 5 5 7 10 12 9 8 6 3 4 6 7 8 9 9 8 9 12 12 11 11 12 13 14 14 11 10 11 11 10 9 8 9 9 8
3 3 3 3 3 3 6 7 8 8 9 5 3 4 5 6 5 5 7 3 4 3 3 4 5 6 3 1 6 4 1 4 3 5 3 4 3 7 5 5 5 5 6 7 4 6 6 5 4 3 3 5 5 7 9 9 10 10 6 2 5 7 6 6 10 11 9 9 10 12 13 14 13 9 6 9 12 11 11 11 11 12 11 11 11 10 9
2 2 4 4 6 5 7 7 5 6 3 1 3 4 6 6 9 3 4 3 4 4 4 4 4 5 5 6 4 3 3 3 1 5 6 4 4 7 2 5 5 6 3 4 7 7 7 4 4 4 5 4 4 4 8 6 7 1 1 5 2 6 8 7 7 7 8 8 7 6 8 10 13 14 12 13 11 10 13 13 13 13 13 13 11 11 10
4 5 5 6 6 7 5 5 5 4 1 2 3 6 8 6 5 4 1 3 4 5 5 2 4 6 4 5 2 1 2 7 4 4 4 2 7 2 5 3 6 4 1 3 7 6 7 3 3 8 2 3 7 7 5 3 6 6 4 5 4 4 6 8 9 9 9 9 12 13 12 10 7 10 12 13 12 11 13 14 14 13 12 9 10 8 7
5 5 5 6 5 5 4 0 2 3 5 6 7 9 8 7 3 2 4 4 4 4 5 4 5 5 4 5 2 3 5 3 0 5 4 4 2 3 5 4 6 2 2 6 6 7 1 5 3 8 6 6 3 3 3 2 2 3 3 4 4 5 5 6 7 9 11 11 12 12 12 11 10 9 12 12 10 11 10 10 9 8 10 10 7 8 9
3 6 4 5 4 4 3 3 2 7 10 11 8 5 3 4 4 3 3 4 3 3 5 4 6 5 0 5 1 1 5 3 5 4 1 5 5 4 1 3 3 0 7 7 1 4 5 3 5 8 8 3 5 5 3 2 2 1 2 2 4 5 6 7 8 8 10 11 11 12 10 11 12 10 10 13 13 11 10 10 11 12 9 7 7 10 8
5 5 6 5 5 2 3 4 6 4 3 3 3 3 4 2 3 3 4 3 3 5 5 5 5 3 4 3 3 4 2 3 4 7 5 4 3 4 1 5 3 4 3 7 2 1 5 4 3 5 9 4 3 3 2 3 2 1 2 2 4 5 6 7 7 8 8 9 9 9 9 9 8 9 10 13 9 7 10 9 5 5 6 5 7 9 3
5 6 4 4 1 5 4 6 5 3 4 4 4 4 3 4 4 1 1 2 3 3 2 4 2 4 2 5 3 2 3 3 5 5 7 2 3 5 1 4 3 3 6 9 2 5 4 5 3 6 7 4 4 3 4 4 3 1 2 4 6 7 6 7 8 7 8 9 9 9 8 8 9 7 8 13 10 10 9 7 6 4 3 4 1 0 2
4 4 4 2 4 2 3 4 4 4 3 3 2 3 2 2 4 2 2 4 3 1 2 5 1 3 1 2 5 3 2 4 2 3 3 5 2 3 5 4 3 5 6 6 2 3 2 5 6 4 4 5 6 3 2 3 4 3 4 7 8 8 9 9 9 9 9 9 8 7 6 5 4 6 7 5 3 8 8 7 8 8 7 5 3 4 3
5 5 4 1 2 3 3 4 3 4 4 2 2 2 3 3 1 2 2 3 1 2 5 2 1 2 2 4 3 2 2 5 4 3 2 3 2 3 5 2 2 3 3 4 2 6 6 5 5 2 4 4 6 4 2 3 4 5 9 9 9 8 10 10 11 9 7 7 6 4 2 4 2 6 3 8 8 7 10 9 6 5 5 2 2 1 2
7 7 4 2 2 3 3 3 3 2 1 1 0 2 3 2 3 4 3 3 2 4 2 2 4 2 3 4 1 3 1 2 3 2 3 2 1 2 4 3 3 4 4 3 4 6 6 8 5 5 6 4 4 5 5 5 4 4 8 7 7 8 10 10 11 11 9 5 3 2 1 5 7 7 5 6 3 6 5 5 6 5 4 3 2 2 3
2 3 4 3 3 1 2 3 2 2 1 2 2 2 4 4 5 3 4 2 2 4 3 4 3 3 1 5 2 3 3 4 3 2 3 3 2 3 3 2 5 4 2 6 5 6 4 4 2 2 3 1 4 6 7 8 9 7 7 7 7 8 9 10 8 6 10 8 4 4 4 6 7 6 1 1 2 4 6 5 4 3 4 2 2 2 1
5 3 1 1 0 1 2 2 3 3 4 4 4 5 4 5 2 4 5 3 4 2 2 1 2 3 2 3 2 3 2 2 2 3 2 2 5 4 5 5 4 4 6 7 6 6 6 2 3 3 2 0 3 4 7 9 10 10 11 12 12 10 10 10 10 8 6 8 8 5 6 7 8 7 7 7 6 4 5 6 6 4 3 2 2 1 1
6 3 3 3 2 2 2 2 1 2 5 3 4 3 5 3 2 2 3 2 3 2 2 3 3 5 3 1 5 2 2 3 3 3 3 3 3 5 3 5 5 7 6 5 4 6 6 4 2 3 2 8 8 8 9 11 11 11 11 11 11 12 11 11 11 9 9 9 8 9 9 8 8 9 9 8 7 6 6 5 4 3 3 3 2 1 1
4 2 1 1 3 3 5 2 5 5 3 3 3 3 3 4 3 3 3 5 5 1 1 4 2 4 3 2 3 2 3 3 3 2 2 5 4 4 2 4 5 5 6 5 5 6 6 6 6 7 9 10 11 12 12 11 11 12 12 12 11 12 12 12 12 11 10 9 9 12 12 9 11 10 9 9 7 6 6 5 4 4 3 2 2 2 1
2 2 2 2 3 3 6 6 4 5 3 3 4 3 3 2 2 2 3 3 7 2 3 4 1 2 4 3 4 6 4 2 4 3 2 5 3 4 2 4 6 5 5 6 7 6 7 8 9 11 12 11 11 12 12 11 12 13 13 12 14 15 14 12 11 10 8 9 7 5 9 10 10 10 10 9 9 8 6 5 5 5 4 3 3 2 1
4 1 2 2 4 4 5 2 3 4 5 5 3 4 4 4 2 3 2 5 4 3 3 4 5 5 3 1 5 5 3 2 3 2 2 5 4 4 5 7 7 7 6 6 9 9 9 10 11 13 12 13 12 11 12 11 13 14 13 12 11 11 14 13 10 10 8 6 4 4 7 7 5 11 11 10 9 8 7 6 6 4 4 4 3 2 2
3 3 4 3 6 7 6 5 4 2 3 8 6 1 6 2 6 4 4 2 2 2 1 2 2 4 3 4 3 4 4 3 4 2 6 7 7 6 6 8 6 8 10 9 9 9 10 11 12 12 12 12 13 13 13 14 14 12 12 12 11 10 10 12 10 7 7 6 5 5 5 7 7 9 11 10 9 8 8 7 6 5 4 4 3 3 2
3 2 4 7 8 6 4 6 4 4 4 6 6 2 5 3 2 2 3 1 1 2 2 3 3 3 3 3 2 2 1 4 6 5 4 7 5 7 7 9 9 8 9 9 9 9 11 11 11 11 13 14 14 14 13 10 13 13 11 8 10 11 7 5 8 10 8 7 6 5 8 9 7 8 8 10 9 8 8 7 6 5 5 4 3 2 2
2 2 5 5 7 7 6 4 3 4 5 6 4 3 3 4 1 2 1 1 2 3 4 3 3 2 0 2 4 4 5 4 3 5 6 6 6 6 7 7 8 8 8 9 9 10 10 10 11 12 13 14 15 14 13 14 13 12 8 7 7 7 6 6 5 6 6 5 5 3 5 8 10 8 8 9 10 9 8 6 6 6 5 4 3 2 2
Wind_Direction
343 340 339 335 333 333 334 339 340 343 342 333 353 327 258 326 6 51 356 349 273 272 120 355 60 30 70 180 110 328 57 8 1 350 326 123 313 126 5 24 288 32 15 168 161 119 73 297 121 95 95 67 45 45 354 340 297 283 140 232 75 314 245 233 49 76 95 126 65 3 321 312 260 234 273 284 225 228 229 223 261 260 217 237 197 109 132
344 341 338 335 333 333 334 336 341 342 360 329 307 291 297 49 342 96 69 280 294 285 292 134 88 97 121 72 94 36 35 2 53 34 36 1 70 33 81 120 12 92 9 82 130 144 153 93 147 137 90 92 33 36 19 341 42 344 41 337 16 272 200 256 208 214 173 167 194 200 189 233 240 225 195 321 313 296 297 318 300 252 246 234 160 164 149
344 342 339 335 334 333 334 336 338 342 344 337 306 301 340 309 188 121 78 247 276 294 41 315 121 133 144 167 149 151 117 35 15 21 43 8 31 119 54 26 101 94 42 93 116 179 311 139 29 76 91 93 77 59 23 10 45 31 23 337 313 301 330 234 224 207 201 189 189 195 179 208 202 23 42 254 278 291 275 248 220 262 254 334 283 134 126
346 343 341 337 335 333 334 336 338 339 344 321 268 286 278 306 280 130 127 336 135 89 342 8 84 117 157 145 61 136 127 129 60 338 75 3 49 27 49 13 146 129 181 142 133 111 147 194 139 167 131 130 93 31 51 35 34 15 327 311 304 328 312 18 29 3 2 30 5 22 263 166 200 165 214 182 233 281 269 284 268 244 237 235 78 137 137
346 345 341 339 337 334 334 336 338 339 342 337 302 281 297 306 333 354 18 233 87 69 360 91 303 60 1 22 334 75 19 104 123 330 61 3 20 59 3 23 231 94 137 102 106 63 102 97 143 107 113 74 96 64 35 70 36 329 302 354 312 251 250 128 309 20 4 9 8 19 340 180 129 162 166 195 200 255 243 227 241 346 327 190 137 142 149
348 346 344 342 338 335 335 338 339 339 340 318 265 290 349 285 66 324 26 316 6 345 77 345 86 64 292 74 269 71 146 119 99 137 34 144 296 290 96 24 26 45 46 134 104 100 96 121 102 96 95 154 146 149 116 78 76 280 354 343 332 323 260 101 274 149 339 360 20 2 18 31 101 17 22 156 117 229 233 255 325 313 265 208 151 154 144
349 348 345 344 341 337 338 339 342 341 335 322 267 297 78 28 80 50 285 286 41 19 38 11 61 66 37 103 353 112 62 84 23 3 96 7 89 312 132 79 76 80 183 287 101 60 184 128 98 99 124 38 182 167 169 128 6 27 33 6 2 287 272 41 294 290 226 146 222 96 329 190 226 225 189 251 250 159 244 185 6 305 171 136 151 148 141
351 350 346 346 344 341 340 342 344 343 338 316 255 13 330 50 340 110 114 59 105 153 211 93 219 99 286 250 35 45 97 95 101 34 346 111 71 12 100 129 131 125 125 102 118 88 13 101 142 95 88 163 300 31 3 35 105 328 41 321 104 281 88 229 270 253 210 218 228 220 234 271 249 191 220 221 230 227 232 262 94 128 145 149 159 141 147
352 351 349 348 345 344 342 345 348 342 345 320 31 47 14 27 24 360 319 115 50 324 245 213 148 143 140 110 94 77 68 75 49 53 25 47 67 50 75 73 80 65 70 73 70 52 58 50 83 96 357 4 78 326 99 321 330 358 218 229 89 270 160 183 242 245 209 195 233 218 232 242 252 223 208 217 208 216 178 227 185 209 169 162 158 154 145
352 353 351 349 347 346 345 349 351 351 334 353 5 44 346 8 99 292 301 67 119 259 92 96 244 80 45 38 91 44 90 110 200 113 37 52 45 44 60 61 87 83 78 65 52 36 40 54 47 41 53 34 82 63 39 344 353 357 25 290 252 251 222 208 201 232 233 142 216 223 231 235 233 229 213 194 212 254 198 71 76 344 157 177 190 169 142
352 353 353 351 349 348 348 351 355 357 352 21 355 20 8 359 347 295 282 282 113 338 270 70 8 64 112 137 115 97 95 50 17 316 124 98 71 30 16 37 35 72 67 52 25 17 41 63 93 118 112 92 119 122 129 88 5 356 335 223 180 251 266 236 208 244 164 139 183 214 232 230 223 32 143 179 194 188 172 162 164 94 333 260 245 150 149
352 353 355 353 350 350 349 352 355 359 1 334 311 10 13 342 298 271 298 288 95 268 3 46 46 137 124 99 90 101 117 190 117 350 102 69 80 61 64 84 275 117 77 314 97 102 123 136 138 118 78 74 60 50 30 50 79 203 260 320 95 217 249 257 166 244 228 151 162 211 224 221 74 101 77 71 52 158 228 138 146 133 92 128 108 128 159
351 354 355 355 351 351 351 352 355 356 358 341 330 20 3 348 306 319 321 302 84 35 98 101 103 104 103 110 102 93 74 73 75 78 86 106 105 71 22 50 67 101 229 101 221 229 191 94 80 46 79 66 63 12 148 102 87 7 17 347 311 260 222 223 223 244 253 187 195 215 192 85 117 88 111 76 180 180 158 164 129 221 144 199 174 119 99
349 354 355 355 352 352 351 353 354 355 353 350 332 13 354 353 343 331 345 322 89 55 81 115 124 106 113 112 114 116 106 82 73 79 110 99 118 89 75 52 71 121 141 168 44 272 163 202 185 197 173 205 182 212 131 292 27 335 61 322 321 333 316 265 237 201 249 216 221 199 110 171 141 169 156 190 175 179 203 209 185 186 166 179 195 142 139
348 354 356 354 353 351 352 352 355 353 353 345 305 350 11 358 345 336 332 302 63 99 262 327 120 130 137 125 162 151 154 111 189 119 67 340 87 76 93 106 138 54 96 235 163 202 297 302 235 222 168 217 223 156 173 210 152 189 224 274 293 308 297 358 295 220 246 255 240 203 190 232 192 155 144 135 107 354 142 296 134 150 150 209 170 189 171
348 353 356 354 352 352 350 352 353 353 355 343 306 17 26 359 318 299 309 320 320 203 92 49 84 147 148 152 211 287 3 179 137 140 157 194 131 100 171 125 109 218 198 277 302 284 245 241 226 249 265 33 60 34 272 14 209 152 183 155 279 294 269 276 274 264 208 232 254 240 242 98 84 113 115 101 108 146 76 251 211 164 162 185 191 180 176
346 353 355 354 351 349 350 351 351 353 355 359 337 340 30 359 346 341 326 321 280 54 94 109 147 159 193 145 176 205 224 299 183 226 180 170 178 189 105 240 144 231 187 269 201 245 212 211 296 274 175 104 52 324 326 288 289 181 151 207 239 237 223 222 228 251 251 255 233 243 256 152 142 123 136 129 120 132 226 220 201 139 159 159 180 164 154
345 350 356 355 349 348 350 350 350 352 353 351 330 327 26 2 348 322 296 312 314 92 86 117 201 200 309 5 19 50 311 248 239 177 290 98 168 181 160 188 194 181 299 258 245 227 251 262 231 235 261 89 117 99 260 94 213 254 214 217 207 203 231 219 242 238 217 228 262 253 121 106 134 142 125 128 143 204 217 230 114 136 126 142 137 139 151
344 348 353 353 349 347 347 348 349 350 352 354 332 274 106 4 348 330 312 288 305 50 96 43 323 326 9 258 358 9 354 348 334 267 154 187 147 127 223 173 293 222 178 241 251 267 272 235 197 262 268 151 170 217 93 190 240 259 289 232 223 234 238 229 240 247 257 236 249 244 145 96 127 130 129 121 165 201 215 88 120 124 119 126 140 126 138
343 346 348 352 347 344 347 344 349 349 348 354 337 322 34 4 357 346 346 347 337 309 118 117 197 240 179 254 216 210 166 206 230 299 308 44 131 185 184 204 179 276 185 236 250 277 273 276 292 107 249 189 177 110 208 238 261 263 246 244 266 240 226 235 226 238 256 254 249 261 256 143 183 129 141 154 245 71 103 133 123 140 127 138 135 159 132
344 340 345 350 345 341 343 343 346 348 346 350 339 306 275 105 340 349 334 328 315 287 122 49 288 280 281 237 257 308 300 327 2 251 308 41 110 238 242 346 121 193 227 219 262 233 264 269 189 204 285 302 113 201 274 247 211 221 243 235 251 292 262 239 246 238 252 224 229 250 353 112 151 168 259 164 314 110 139 138 163 144 148 159 163 164 168
336 336 339 346 342 336 341 340 343 347 347 344 330 287 281 93 327 346 323 306 288 293 346 12 336 286 258 273 305 316 298 318 343 339 310 276 171 252 19 227 230 262 354 285 257 225 216 242 249 251 225 221 148 231 188 229 240 163 192 237 244 192 236 312 296 12 272 276 351 60 198 154 159 189 63 83 113 120 99 19 44 155 177 134 232 125 145
322 326 334 340 335 330 337 335 339 345 344 347 330 285 319 349 33 355 293 277 241 253 261 240 206 240 243 250 254 270 261 277 302 287 278 290 254 183 248 243 223 228 219 249 286 322 313 314 285 310 270 253 251 241 216 239 278 145 203 189 261 65 290 19 275 251 258 279 278 198 116 140 180 179 104 135 137 128 151 164 214 209 318 131 215 138 180
317 318 328 339 331 330 328 331 331 343 346 341 326 316 328 351 331 314 268 248 281 302 228 203 233 202 187 182 178 189 223 223 245 259 292 293 274 227 181 243 334 271 230 253 349 305 316 309 289 330 277 272 242 242 246 226 233 224 233 207 210 223 199 222 234 246 270 250 195 213 207 190 202 189 150 157 154 167 200 186 223 180 184 186 139 250 192
299 312 328 339 327 325 328 323 328 335 342 335 311 255 256 254 347 327 314 322 313 307 304 176 171 66 90 77 164 218 216 256 191 216 221 220 246 272 314 30 351 330 334 3 117 261 245 260 252 229 254 242 252 251 243 277 250 233 248 249 228 210 186 228 231 251 241 247 109 8 328 270 208 211 187 190 196 193 192 204 190 207 176 199 178 181 216
286 318 332 335 329 320 324 321 312 324 335 336 308 324 322 344 349 299 281 266 264 264 268 266 123 187 119 212 202 195 88 203 225 210 225 231 228 245 272 227 228 217 271 241 243 260 266 255 258 268 261 257 208 267 258 271 303 268 252 268 344 49 129 226 205 240 240 251 258 229 220 226 230 221 226 221 202 193 194 190 196 212 202 199 205 211 233
286 317 351 339 323 322 318 321 312 307 316 308 289 278 295 319 321 307 330 341 312 230 227 253 104 165 182 237 95 287 234 248 233 231 218 221 234 233 234 248 252 231 245 251 243 260 249 259 266 260 249 280 331 272 286 266 258 258 248 241 170 202 228 233 240 239 242 250 238 216 234 227 209 218 227 230 230 225 239 238 209 201 215 212 218 207 214
271 323 355 350 329 321 308 304 304 310 269 270 269 283 259 277 338 330 312 312 304 306 324 307 282 23 346 242 96 232 159 210 234 216 220 213 220 232 240 238 234 248 237 250 250 230 245 253 249 253 260 260 258 250 280 278 290 272 251 246 245 237 250 252 245 252 255 321 324 336 331 313 299 305 273 236 242 251 244 235 236 228 223 226 223 226 227
272 36 40 342 323 301 295 290 310 309 317 287 269 251 224 220 309 39 298 306 294 296 290 289 281 260 266 104 184 223 172 230 209 219 208 212 209 217 233 232 240 240 245 250 262 269 258 259 276 280 277 92 267 267 318 251 245 251 276 341 337 32 357 314 305 309 298 296 281 281 279 278 291 277 274 257 239 230 233 238 232 231 221 214 231 244 247
316 61 21 315 295 291 282 283 286 291 300 273 252 243 234 142 134 263 47 313 309 304 275 303 300 66 123 215 212 187 208 177 223 220 228 228 200 212 215 220 231 237 259 253 252 250 247 254 251 212 79 165 245 308 258 257 252 243 208 198 16 12 350 317 312 292 284 305 299 304 306 293 273 273 274 268 260 254 242 232 230 226 224 223 224 226 234
252 63 343 255 245 257 266 269 281 292 275 264 267 255 241 212 98 31 126 248 264 290 302 284 265 326 269 90 346 203 224 150 231 227 214 213 224 219 219 227 237 238 236 234 234 257 263 249 249 192 144 183 201 241 250 263 265 265 266 260 212 258 247 246 254 259 264 271 286 291 282 266 263 267 259 251 245 240 240 239 237 232 216 216 225 234 246
69 224 140 267 266 250 251 265 287 265 263 281 304 331 20 20 33 25 52 271 282 257 280 291 277 234 230 150 183 136 225 215 184 230 133 282 201 190 264 240 260 219 255 262 283 310 256 275 277 255 174 166 183 258 239 243 255 266 274 263 229 230 247 254 247 243 249 255 258 260 255 253 250 250 255 244 241 242 241 232 230 224 212 216 220 215 223
147 159 221 235 248 242 263 277 271 274 301 334 330 260 48 34 333 296 223 250 242 277 292 271 267 299 256 82 145 180 153 187 189 35 1 350 330 245 224 213 255 242 179 250 231 251 235 251 257 259 73 140 211 222 240 246 255 268 282 298 282 282 280 278 274 269 254 243 242 251 255 252 246 244 251 252 251 254 249 237 223 228 218 200 218 235 234
182 189 219 235 244 276 264 258 271 290 283 260 219 150 131 188 206 229 296 273 288 286 265 262 263 252 219 154 238 120 324 265 221 142 198 260 235 253 224 205 199 241 189 227 225 227 232 243 256 53 110 214 231 255 250 251 252 256 271 271 254 250 247 265 260 253 249 245 238 244 252 259 270 280 302 287 258 239 235 227 222 222 199 203 215 218 224
177 193 207 219 248 256 260 256 252 230 243 111 85 75 111 179 322 277 234 286 256 207 217 226 262 275 251 210 224 110 282 282 271 236 248 182 249 251 223 237 174 235 182 197 251 254 255 253 120 194 236 195 203 239 251 265 314 348 195 258 285 295 278 258 260 282 296 293 293 297 298 297 278 258 237 233 231 225 225 218 215 216 214 202 214 223 229
183 199 208 222 251 237 243 222 239 253 80 35 47 90 116 178 212 228 284 283 278 306 269 241 238 262 277 269 272 136 243 238 244 234 268 265 207 205 280 261 260 223 82 184 257 240 233 138 209 249 229 222 238 243 249 235 216 249 259 271 294 302 292 290 293 296 288 283 279 280 271 261 268 280 266 239 231 222 220 215 208 208 214 210 212 229 242
223 226 230 234 229 228 215 131 102 40 41 61 82 118 163 195 149 216 214 238 223 231 280 304 273 270 296 319 332 43 283 298 234 261 186 197 273 182 221 241 265 45 260 246 248 254 242 128 226 269 240 234 246 197 161 201 264 262 289 325 313 293 297 304 300 298 290 284 278 268 263 253 244 241 249 252 232 217 212 213 202 206 207 206 202 231 233
204 238 215 215 208 226 161 125 56 104 100 96 137 170 177 222 210 175 205 236 203 208 234 242 263 276 300 260 292 191 285 337 6 322 17 34 287 263 152 259 331 229 267 282 330 114 135 216 231 243 258 131 152 169 185 178 185 181 282 296 301 307 313 315 312 305 303 300 295 288 268 251 247 242 248 236 219 203 205 208 199 204 217 212 207 227 232
235 213 227 226 256 358 40 83 107 146 266 167 221 256 205 216 241 220 211 188 178 228 198 243 261 289 282 267 80 294 292 298 272 205 262 156 272 296 285 281 162 243 273 278 146 188 262 240 250 260 256 173 188 170 173 161 197 177 269 314 303 322 323 317 318 311 306 298 281 267 276 273 262 253 236 235 209 203 215 196 182 190 214 220 244 247 268
219 221 238 216 7 62 92 95 134 198 227 248 212 262 259 197 240 251 147 247 235 225 172 243 200 278 287 295 310 187 159 234 293 321 334 307 161 298 22 275 23 309 280 284 319 179 263 273 248 240 239 170 111 132 179 192 183 45 357 333 333 323 325 318 321 312 306 302 290 280 274 272 266 256 257 239 211 185 169 170 169 163 223 228 344 266 248
212 259 255 40 88 110 99 151 176 234 239 236 229 225 282 249 226 264 241 252 263 342 286 301 237 223 146 345 260 288 109 275 265 284 283 277 15 285 275 287 36 282 283 288 127 224 181 263 257 284 45 109 138 138 116 119 37 16 3 352 338 331 327 327 322 323 317 314 308 296 286 286 279 273 244 272 160 162 163 166 172 186 191 198 171 211 235
19 338 36 37 55 85 163 185 214 237 228 252 290 267 233 261 229 225 251 281 92 192 182 186 172 272 262 185 275 356 80 318 324 283 273 273 139 274 313 303 169 268 284 348 3 272 269 275 277 298 126 77 82 109 276 343 1 346 345 334 332 329 327 323 319 320 323 315 314 310 358 358 49 47 100 187 177 187 176 172 142 142 161 129 75 295 269
251 273 274 214 177 195 196 234 183 251 326 325 17 309 252 245 244 261 239 214 96 270 65 151 27 344 19 306 245 4 348 211 272 223 240 275 87 243 272 269 259 267 286 326 282 297 284 285 289 36 42 33 10 1 331 326 311 306 300 306 313 317 310 308 312 319 316 308 281 252 137 84 70 67 40 333 289 151 148 155 157 159 133 146 189 215 225
161 213 215 194 231 164 236 267 203 215 258 240 192 220 221 226 199 180 245 174 173 254 312 290 144 148 213 253 299 262 205 187 182 284 253 235 277 275 265 268 267 308 291 271 282 283 291 47 64 169 220 22 336 340 322 321 313 297 277 282 289 295 296 293 290 300 301 293 250 212 161 125 127 128 153 17 298 212 148 130 132 119 110 128 217 226 16
225 188 279 263 349 34 54 324 247 212 242 209 222 282 299 318 57 252 311 95 223 328 129 232 304 251 302 129 192 192 257 269 119 273 301 313 269 269 263 278 301 308 292 294 289 293 321 70 195 187 170 302 281 273 287 298 296 298 300 298 292 284 278 279 284 281 262 262 266 224 205 191 170 167 168 171 190 177 160 144 132 155 165 184 164 193 91
213 200 198 195 259 247 209 235 187 245 244 259 250 269 298 317 324 332 94 268 300 242 229 146 215 258 283 123 309 343 222 250 287 242 238 242 278 276 311 314 289 286 289 284 313 317 333 22 153 173 18 342 335 317 302 300 302 308 307 295 293 291 287 281 275 271 273 262 246 235 212 188 188 174 172 169 162 155 145 138 146 148 145 181 170 157 135
303 352 274 288 273 230 208 240 218 229 285 263 260 318 319 343 13 58 345 306 254 286 192 206 268 338 347 134 241 190 239 266 268 305 280 275 282 302 271 276 293 288 297 318 318 317 333 343 352 353 331 319 316 317 322 328 325 313 301 294 290 286 282 275 272 270 268 259 253 246 229 198 203 175 159 162 153 140 134 139 137 136 138 144 131 158 184
237 276 285 247 240 214 218 229 264 266 217 274 315 327 322 338 263 277 167 234 294 316 295 311 89 136 240 151 238 285 284 150 291 288 306 306 298 297 330 308 293 298 314 313 319 344 326 331 326 328 340 345 344 331 319 316 311 306 303 302 299 293 284 274 271 268 262 263 271 289 278 246 193 165 167 155 152 140 145 138 133 130 120 124 130 133 104
320 289 229 241 260 272 268 283 259 280 359 350 318 308 292 258 306 64 212 239 243 274 341 348 348 339 323 211 295 315 305 113 269 331 295 281 300 293 300 307 326 313 324 334 325 332 339 338 341 354 345 330 323 319 315 314 317 314 305 296 295 293 285 277 261 258 261 262 268 241 224 261 210 156 155 149 145 143 144 143 142 137 136 135 134 129 135
233 237 245 246 258 252 250 259 257 318 46 316 292 84 276 292 92 168 236 215 248 248 280 229 167 290 321 334 322 337 307 309 336 297 276 297 311 317 319 307 313 319 325 339 341 338 337 340 345 337 328 321 317 318 319 321 317 310 306 300 295 287 276 269 273 271 267 266 237 224 229 219 206 154 147 144 142 141 143 141 137 136 128 132 130 132 104
244 258 254 250 263 293 311 293 298 292 249 218 225 234 261 118 229 169 172 263 313 271 219 301 308 300 11 349 297 281 344 8 286 293 311 304 333 325 320 314 324 331 341 355 339 335 335 334 329 324 320 318 319 323 319 312 315 306 299 300 287 271 269 284 281 270 264 248 197 183 179 169 146 128 124 131 142 145 143 144 142 142 152 151 148 137 131
228 232 247 226 236 253 269 299 296 283 304 306 353 23 303 52 263 77 118 211 196 274 323 1 275 296 264 288 350 331 296 269 285 306 294 321 349 322 317 339 353 353 336 334 340 339 334 333 326 322 320 318 323 321 320 319 316 300 291 274 265 282 290 278 271 282 270 236 132 170 184 152 136 127 137 148 147 151 151 149 156 164 161 156 145 134 119